| time (UTC) | temp F | wind direction | speed MPH | gust MPH | rain 1hr in | rain 24hr in | rain mn in | humidity % | barometer mb |
| 20260507002309 | 43 | 211 | 0.0 | 1.0 | 0.03 | 0.00 | 1.20 | 94 | 1008.7 |
| 20260507001808 | 43 | 0 | 0.0 | 0.0 | 0.03 | 0.00 | 1.19 | 94 | 1008.5 |
| 20260507001309 | 43 | 0 | 0.0 | 0.0 | 0.02 | 0.00 | 1.19 | 94 | 1008.4 |
| 20260507000810 | 43 | 25 | 0.0 | 0.0 | 0.02 | 0.00 | 1.18 | 94 | 1008.3 |
| 20260507000308 | 43 | 44 | 0.0 | 1.0 | 0.02 | 0.00 | 1.18 | 94 | 1008.3 |
| 20260506235808 | 43 | 0 | 0.0 | 0.0 | 0.01 | 0.00 | 1.18 | 94 | 1008.3 |
| 20260506235309 | 43 | 32 | 1.0 | 1.0 | 0.01 | 0.00 | 1.18 | 94 | 1008.0 |
| 20260506234809 | 43 | 0 | 0.0 | 0.0 | 0.00 | 0.00 | 1.17 | 94 | 1007.8 |
| 20260506234308 | 43 | 148 | 0.0 | 0.0 | 0.00 | 0.00 | 1.16 | 94 | 1007.8 |
| 20260506233809 | 43 | 201 | 1.0 | 2.0 | 0.00 | 0.00 | 1.16 | 93 | 1007.9 |
| 20260506233309 | 43 | 47 | 0.0 | 0.0 | 0.00 | 0.00 | 1.16 | 93 | 1007.8 |
| 20260506232808 | 43 | 284 | 0.0 | 0.0 | 0.00 | 0.00 | 1.16 | 93 | 1007.9 |
| 20260506232308 | 43 | 223 | 1.0 | 2.0 | 0.00 | 0.00 | 1.16 | 93 | 1007.7 |
| 20260506231809 | 43 | 123 | 2.0 | 2.0 | 0.00 | 0.00 | 1.16 | 93 | 1007.5 |
| 20260506231308 | 43 | 347 | 1.0 | 2.0 | 0.00 | 0.00 | 1.16 | 93 | 1007.2 |
| 20260506230809 | 44 | 38 | 2.0 | 3.0 | 0.00 | 0.00 | 1.16 | 93 | 1007.0 |
| 20260506230309 | 44 | 77 | 4.0 | 5.0 | 0.00 | 0.00 | 1.16 | 93 | 1006.9 |
| 20260506225809 | 44 | 84 | 2.0 | 2.0 | 0.00 | 0.00 | 1.16 | 93 | 1007.0 |
| 20260506225308 | 44 | 50 | 0.0 | 2.0 | 0.01 | 0.00 | 1.16 | 93 | 1007.0 |
| 20260506224816 | 44 | 178 | 0.0 | 1.0 | 0.01 | 0.00 | 1.16 | 93 | 1006.9 |
| 20260506224308 | 44 | 293 | 1.0 | 2.0 | 0.01 | 0.00 | 1.16 | 93 | 1006.6 |
| 20260506223810 | 44 | 122 | 0.0 | 0.0 | 0.01 | 0.00 | 1.16 | 93 | 1006.5 |
| 20260506223310 | 44 | 96 | 2.0 | 2.0 | 0.01 | 0.00 | 1.16 | 93 | 1006.3 |
| 20260506222809 | 44 | 81 | 1.0 | 2.0 | 0.01 | 0.00 | 1.16 | 93 | 1006.5 |
| 20260506222309 | 44 | 55 | 2.0 | 2.0 | 0.01 | 0.00 | 1.15 | 93 | 1006.2 |
| 20260506221808 | 44 | 21 | 1.0 | 2.0 | 0.01 | 0.00 | 1.15 | 93 | 1006.2 |
| 20260506221309 | 44 | 329 | 0.0 | 1.0 | 0.01 | 0.00 | 1.15 | 93 | 1006.2 |
| 20260506220810 | 44 | 23 | 1.0 | 2.0 | 0.01 | 0.00 | 1.15 | 93 | 1006.2 |
| 20260506220308 | 44 | 45 | 1.0 | 2.0 | 0.01 | 0.00 | 1.17 | 93 | 1006.2 |
| 20260506215808 | 44 | 156 | 0.0 | 2.0 | 0.01 | 0.00 | 1.17 | 93 | 1006.4 |
| 20260506215309 | 44 | 144 | 2.0 | 2.0 | 0.00 | 0.00 | 1.17 | 93 | 1006.1 |
| 20260506214809 | 44 | 150 | 0.0 | 0.0 | 0.02 | 0.00 | 1.17 | 93 | 1006.0 |
| 20260506214309 | 44 | 81 | 1.0 | 2.0 | 0.02 | 0.00 | 1.17 | 93 | 1006.0 |
| 20260506213808 | 44 | 54 | 1.0 | 1.0 | 0.03 | 0.00 | 1.17 | 93 | 1005.9 |
| 20260506212827 | 45 | 44 | 1.0 | 2.0 | 0.08 | 0.00 | 1.17 | 93 | 1005.7 |
| 20260506212308 | 45 | 72 | 2.0 | 2.0 | 0.01 | 0.00 | 1.09 | 93 | 1005.7 |
| 20260506211809 | 45 | 0 | 0.0 | 0.0 | 0.01 | 0.00 | 1.09 | 93 | 1005.8 |
| 20260506211308 | 45 | 47 | 0.0 | 1.0 | 0.01 | 0.00 | 1.09 | 93 | 1005.7 |
| 20260506210808 | 45 | 186 | 1.0 | 2.0 | 0.01 | 0.00 | 1.09 | 93 | 1005.7 |
| 20260506210309 | 45 | 216 | 1.0 | 1.0 | 0.01 | 0.00 | 1.10 | 93 | 1005.6 |
| 20260506205808 | 45 | 0 | 0.0 | 0.0 | 0.01 | 0.00 | 1.10 | 93 | 1005.4 |
| 20260506205309 | 45 | 22 | 1.0 | 2.0 | 0.01 | 0.00 | 1.10 | 93 | 1005.3 |
| 20260506204809 | 45 | 71 | 0.0 | 0.0 | 0.01 | 0.00 | 1.10 | 93 | 1005.3 |
| 20260506204309 | 45 | 30 | 2.0 | 3.0 | 0.01 | 0.00 | 1.10 | 93 | 1005.3 |
| 20260506203808 | 45 | 63 | 2.0 | 2.0 | 0.01 | 0.00 | 1.10 | 93 | 1005.5 |
| 20260506203309 | 45 | 0 | 0.0 | 2.0 | 0.02 | 0.00 | 1.09 | 93 | 1005.6 |
| 20260506202809 | 45 | 23 | 2.0 | 2.0 | 0.02 | 0.00 | 1.09 | 93 | 1005.6 |
| 20260506202311 | 45 | 67 | 0.0 | 1.0 | 0.03 | 0.00 | 1.06 | 93 | 1005.6 |
| 20260506201808 | 45 | 124 | 1.0 | 1.0 | 0.03 | 0.00 | 1.06 | 92 | 1005.6 |
| 20260506201309 | 45 | 213 | 2.0 | 2.0 | 0.05 | 0.00 | 1.06 | 93 | 1005.6 |
| 20260506200810 | 45 | 37 | 4.0 | 4.0 | 0.08 | 0.00 | 1.06 | 92 | 1005.3 |
| 20260506200310 | 45 | 348 | 2.0 | 3.0 | 0.08 | 0.00 | 1.06 | 92 | 1005.6 |
| 20260506195809 | 45 | 160 | 2.0 | 3.0 | 0.11 | 0.00 | 1.06 | 93 | 1005.5 |
| 20260506195309 | 46 | 62 | 1.0 | 2.0 | 0.18 | 0.00 | 1.06 | 93 | 1005.7 |
| 20260506194809 | 46 | 104 | 2.0 | 2.0 | 0.19 | 0.00 | 1.06 | 93 | 1005.6 |
| 20260506194309 | 46 | 66 | 2.0 | 2.0 | 0.19 | 0.00 | 1.06 | 93 | 1005.6 |
| 20260506193811 | 46 | 229 | 1.0 | 2.0 | 0.19 | 0.00 | 1.06 | 93 | 1005.8 |
| 20260506193310 | 45 | 17 | 2.0 | 2.0 | 0.19 | 0.00 | 1.06 | 93 | 1005.7 |
| 20260506192809 | 46 | 50 | 2.0 | 3.0 | 0.19 | 0.00 | 1.05 | 93 | 1005.7 |
| 20260506192308 | 46 | 20 | 2.0 | 3.0 | 0.16 | 0.00 | 1.01 | 92 | 1005.7 |
| 20260506191810 | 46 | 74 | 2.0 | 2.0 | 0.15 | 0.00 | 1.00 | 92 | 1005.8 |
| 20260506191310 | 46 | 135 | 0.0 | 2.0 | 0.15 | 0.00 | 0.99 | 92 | 1005.8 |
| 20260506190810 | 47 | 235 | 1.0 | 2.0 | 0.16 | 0.00 | 1.01 | 92 | 1005.9 |
| 20260506190309 | 48 | 177 | 2.0 | 2.0 | 0.12 | 0.00 | 0.99 | 92 | 1005.7 |
| 20260506185810 | 48 | 196 | 2.0 | 3.0 | 0.12 | 0.00 | 0.97 | 92 | 1005.6 |
| 20260506185308 | 49 | 9 | 2.0 | 3.0 | 0.09 | 0.00 | 0.94 | 91 | 1005.4 |
| 20260506184810 | 51 | 42 | 3.0 | 4.0 | 0.08 | 0.00 | 0.90 | 90 | 1005.5 |
| 20260506184308 | 54 | 135 | 2.0 | 3.0 | 0.08 | 0.00 | 0.88 | 89 | 1005.3 |
| 20260506183816 | 57 | 33 | 4.0 | 4.0 | 0.09 | 0.00 | 0.88 | 90 | 1005.2 |
| 20260506183309 | 59 | 2 | 1.0 | 2.0 | 0.10 | 0.00 | 0.87 | 92 | 1005.1 |
| 20260506182808 | 59 | 4 | 1.0 | 2.0 | 0.09 | 0.00 | 0.86 | 92 | 1005.2 |
| 20260506182309 | 59 | 264 | 1.0 | 2.0 | 0.09 | 0.00 | 0.84 | 91 | 1005.2 |
| 20260506181810 | 59 | 225 | 3.0 | 4.0 | 0.12 | 0.00 | 0.84 | 91 | 1005.3 |
| 20260506181309 | 59 | 195 | 3.0 | 4.0 | 0.14 | 0.00 | 0.83 | 91 | 1005.3 |
| 20260506180810 | 59 | 191 | 3.0 | 4.0 | 0.14 | 0.00 | 0.83 | 91 | 1005.3 |
| 20260506180309 | 59 | 172 | 4.0 | 6.0 | 0.13 | 0.00 | 0.81 | 91 | 1005.4 |
| 20260506175808 | 59 | 199 | 3.0 | 4.0 | 0.13 | 0.00 | 0.80 | 90 | 1005.3 |
| 20260506175309 | 59 | 192 | 4.0 | 6.0 | 0.14 | 0.00 | 0.79 | 90 | 1005.4 |
| 20260506174808 | 59 | 248 | 4.0 | 7.0 | 0.15 | 0.00 | 0.78 | 91 | 1005.4 |
| 20260506174308 | 59 | 236 | 2.0 | 4.0 | 0.15 | 0.00 | 0.78 | 91 | 1005.4 |
| 20260506173808 | 59 | 212 | 4.0 | 6.0 | 0.16 | 0.00 | 0.77 | 91 | 1005.5 |
| 20260506173308 | 59 | 200 | 4.0 | 5.0 | 0.16 | 0.00 | 0.76 | 91 | 1005.4 |
| 20260506172809 | 59 | 176 | 4.0 | 4.0 | 0.20 | 0.00 | 0.75 | 91 | 1005.5 |
| 20260506172311 | 58 | 209 | 4.0 | 5.0 | 0.20 | 0.00 | 0.75 | 92 | 1005.5 |
| 20260506171808 | 59 | 236 | 2.0 | 2.0 | 0.21 | 0.00 | 0.74 | 91 | 1005.6 |
| 20260506171309 | 58 | 207 | 3.0 | 5.0 | 0.21 | 0.00 | 0.72 | 91 | 1005.7 |
| 20260506170809 | 58 | 233 | 2.0 | 3.0 | 0.21 | 0.00 | 0.70 | 91 | 1005.7 |
| 20260506170309 | 58 | 163 | 1.0 | 2.0 | 0.20 | 0.00 | 0.69 | 91 | 1005.8 |
| 20260506165809 | 58 | 211 | 0.0 | 0.0 | 0.20 | 0.00 | 0.68 | 91 | 1005.9 |
| 20260506165315 | 58 | 178 | 1.0 | 3.0 | 0.20 | 0.00 | 0.67 | 91 | 1006.1 |
| 20260506164808 | 58 | 225 | 4.0 | 6.0 | 0.18 | 0.00 | 0.65 | 91 | 1006.2 |
| 20260506164308 | 58 | 225 | 3.0 | 3.0 | 0.17 | 0.00 | 0.63 | 92 | 1006.2 |
| 20260506163808 | 58 | 216 | 2.0 | 3.0 | 0.17 | 0.00 | 0.63 | 92 | 1006.2 |
| 20260506163308 | 58 | 215 | 3.0 | 4.0 | 0.17 | 0.00 | 0.60 | 92 | 1006.3 |
| 20260506162808 | 58 | 227 | 3.0 | 4.0 | 0.14 | 0.00 | 0.58 | 92 | 1006.4 |
| 20260506162310 | 58 | 276 | 2.0 | 2.0 | 0.14 | 0.00 | 0.54 | 92 | 1006.4 |
| 20260506161810 | 58 | 267 | 1.0 | 1.0 | 0.13 | 0.00 | 0.52 | 92 | 1006.5 |
| 20260506161309 | 58 | 258 | 1.0 | 1.0 | 0.13 | 0.00 | 0.50 | 92 | 1006.5 |
| 20260506160809 | 58 | 245 | 1.0 | 1.0 | 0.14 | 0.00 | 0.49 | 92 | 1006.5 |
| 20260506160308 | 57 | 0 | 0.0 | 0.0 | 0.14 | 0.00 | 0.47 | 92 | 1006.6 |
| 20260506155812 | 57 | 0 | 0.0 | 0.0 | 0.14 | 0.00 | 0.46 | 92 | 1006.6 |
| 20260506155308 | 57 | 255 | 1.0 | 1.0 | 0.15 | 0.00 | 0.45 | 92 | 1006.7 |
| 20260506154809 | 57 | 0 | 0.0 | 0.0 | 0.15 | 0.00 | 0.44 | 92 | 1006.6 |
| 20260506154308 | 57 | 274 | 1.0 | 1.0 | 0.18 | 0.00 | 0.43 | 92 | 1006.7 |
| 20260506153808 | 57 | 256 | 1.0 | 2.0 | 0.17 | 0.00 | 0.42 | 92 | 1006.7 |
| 20260506153308 | 57 | 202 | 1.0 | 2.0 | 0.17 | 0.00 | 0.41 | 92 | 1006.7 |
| 20260506152808 | 56 | 0 | 0.0 | 0.0 | 0.19 | 0.00 | 0.40 | 92 | 1006.9 |
| 20260506152309 | 56 | 228 | 1.0 | 2.0 | 0.18 | 0.00 | 0.39 | 92 | 1007.0 |
| 20260506151810 | 56 | 192 | 0.0 | 1.0 | 0.18 | 0.00 | 0.39 | 92 | 1007.0 |
| 20260506151309 | 56 | 245 | 1.0 | 2.0 | 0.19 | 0.00 | 0.37 | 92 | 1007.1 |
| 20260506150809 | 56 | 199 | 1.0 | 2.0 | 0.17 | 0.00 | 0.35 | 92 | 1007.1 |
| 20260506150311 | 56 | 182 | 2.0 | 2.0 | 0.17 | 0.00 | 0.34 | 92 | 1007.3 |
| 20260506145809 | 56 | 178 | 2.0 | 2.0 | 0.17 | 0.00 | 0.32 | 91 | 1007.4 |
| 20260506145308 | 56 | 236 | 2.0 | 2.0 | 0.15 | 0.00 | 0.30 | 91 | 1007.6 |
| 20260506144809 | 56 | 229 | 1.0 | 2.0 | 0.15 | 0.00 | 0.29 | 91 | 1007.5 |
| 20260506144308 | 56 | 224 | 1.0 | 2.0 | 0.13 | 0.00 | 0.28 | 91 | 1007.5 |
| 20260506143809 | 56 | 206 | 4.0 | 5.0 | 0.13 | 0.00 | 0.25 | 91 | 1007.8 |
| 20260506143310 | 56 | 206 | 1.0 | 2.0 | 0.13 | 0.00 | 0.24 | 91 | 1007.8 |
| 20260506142809 | 56 | 185 | 2.0 | 3.0 | 0.12 | 0.00 | 0.22 | 91 | 1007.9 |
| 20260506142308 | 56 | 207 | 2.0 | 2.0 | 0.12 | 0.00 | 0.21 | 91 | 1007.9 |
| 20260506141809 | 57 | 183 | 2.0 | 2.0 | 0.11 | 0.00 | 0.20 | 90 | 1007.7 |
| 20260506141309 | 57 | 191 | 2.0 | 2.0 | 0.09 | 0.00 | 0.19 | 91 | 1007.7 |
| 20260506140339 | 57 | 197 | 2.0 | 3.0 | 0.08 | 0.00 | 0.16 | 92 | 1007.6 |
| 20260506135809 | 57 | 194 | 2.0 | 2.0 | 0.08 | 0.00 | 0.14 | 92 | 1007.6 |
| 20260506135312 | 57 | 214 | 1.0 | 2.0 | 0.08 | 0.00 | 0.13 | 92 | 1007.6 |
| 20260506134810 | 56 | 226 | 0.0 | 2.0 | 0.06 | 0.00 | 0.13 | 93 | 1007.5 |
| 20260506134309 | 56 | 213 | 2.0 | 3.0 | 0.06 | 0.00 | 0.12 | 93 | 1007.6 |
| 20260506133810 | 56 | 214 | 2.0 | 3.0 | 0.06 | 0.00 | 0.11 | 94 | 1007.6 |
| 20260506133310 | 56 | 0 | 0.0 | 0.0 | 0.05 | 0.00 | 0.10 | 94 | 1007.5 |
| 20260506132810 | 56 | 0 | 0.0 | 0.0 | 0.05 | 0.00 | 0.09 | 93 | 1007.5 |
| 20260506132309 | 56 | 0 | 0.0 | 0.0 | 0.06 | 0.00 | 0.09 | 94 | 1007.4 |
| 20260506131808 | 56 | 0 | 0.0 | 0.0 | 0.05 | 0.00 | 0.09 | 94 | 1007.4 |
| 20260506131311 | 56 | 195 | 0.0 | 1.0 | 0.05 | 0.00 | 0.08 | 94 | 1007.5 |
| 20260506130810 | 56 | 0 | 0.0 | 0.0 | 0.04 | 0.00 | 0.07 | 93 | 1007.5 |
| 20260506130308 | 56 | 0 | 0.0 | 0.0 | 0.04 | 0.00 | 0.06 | 93 | 1007.6 |
| 20260506125809 | 56 | 0 | 0.0 | 0.0 | 0.04 | 0.00 | 0.06 | 93 | 1007.8 |
| 20260506125309 | 56 | 0 | 0.0 | 0.0 | 0.04 | 0.00 | 0.06 | 93 | 1007.8 |
| 20260506124810 | 55 | 0 | 0.0 | 0.0 | 0.04 | 0.00 | 0.05 | 93 | 1007.9 |
| 20260506124309 | 55 | 0 | 0.0 | 0.0 | 0.03 | 0.00 | 0.05 | 93 | 1008.0 |
| 20260506123809 | 55 | 0 | 0.0 | 0.0 | 0.03 | 0.00 | 0.05 | 93 | 1008.3 |
| 20260506123309 | 55 | 0 | 0.0 | 0.0 | 0.02 | 0.00 | 0.04 | 93 | 1008.1 |
| 20260506122809 | 55 | 0 | 0.0 | 0.0 | 0.01 | 0.00 | 0.04 | 93 | 1008.3 |
| 20260506122309 | 55 | 0 | 0.0 | 0.0 | 0.01 | 0.00 | 0.03 | 93 | 1008.3 |
| 20260506121809 | 55 | 0 | 0.0 | 0.0 | 0.01 | 0.00 | 0.02 | 93 | 1008.1 |
| 20260506121309 | 55 | 0 | 0.0 | 0.0 | 0.01 | 0.00 | 0.02 | 93 | 1007.9 |
| 20260506120808 | 55 | 0 | 0.0 | 0.0 | 0.01 | 0.00 | 0.02 | 93 | 1007.9 |
| 20260506120309 | 55 | 0 | 0.0 | 0.0 | 0.01 | 0.00 | 0.02 | 93 | 1007.8 |
| 20260506115808 | 54 | 0 | 0.0 | 0.0 | 0.00 | 0.00 | 0.02 | 93 | 1007.7 |
| 20260506115310 | 54 | 230 | 1.0 | 2.0 | 0.00 | 0.00 | 0.01 | 93 | 1007.7 |
| 20260506114810 | 54 | 0 | 0.0 | 0.0 | 0.00 | 0.00 | 0.01 | 93 | 1007.5 |
| 20260506114309 | 54 | 45 | 0.0 | 1.0 | 0.00 | 0.00 | 0.01 | 93 | 1007.5 |
| 20260506113813 | 54 | 0 | 0.0 | 0.0 | 0.00 | 0.00 | 0.01 | 93 | 1007.7 |
| 20260506113312 | 53 | 0 | 0.0 | 0.0 | 0.00 | 0.00 | 0.01 | 93 | 1007.7 |
| 20260506112810 | 53 | 347 | 0.0 | 1.0 | 0.00 | 0.00 | 0.01 | 93 | 1007.7 |
| 20260506112310 | 53 | 0 | 0.0 | 0.0 | 0.00 | 0.00 | 0.01 | 93 | 1007.8 |
| 20260506111810 | 53 | 225 | 0.0 | 0.0 | 0.00 | 0.00 | 0.01 | 93 | 1007.9 |
| 20260506111311 | 53 | 212 | 0.0 | 1.0 | 0.00 | 0.00 | 0.01 | 93 | 1007.9 |
| 20260506110808 | 53 | 0 | 0.0 | 0.0 | 0.00 | 0.00 | 0.01 | 93 | 1007.5 |
| 20260506110310 | 53 | 16 | 1.0 | 2.0 | 0.00 | 0.00 | 0.01 | 93 | 1007.6 |
| 20260506105811 | 53 | 0 | 0.0 | 0.0 | 0.00 | 0.00 | 0.01 | 93 | 1007.7 |
| 20260506105310 | 53 | 0 | 0.0 | 0.0 | 0.00 | 0.00 | 0.01 | 93 | 1007.6 |
| 20260506104810 | 53 | 224 | 2.0 | 2.0 | 0.00 | 0.00 | 0.01 | 93 | 1007.6 |
| 20260506104311 | 53 | 0 | 0.0 | 0.0 | 0.00 | 0.00 | 0.01 | 93 | 1007.4 |
| 20260506103808 | 53 | 0 | 0.0 | 0.0 | 0.00 | 0.00 | 0.01 | 93 | 1007.5 |
| 20260506103311 | 53 | 0 | 0.0 | 0.0 | 0.00 | 0.00 | 0.01 | 93 | 1007.3 |
| 20260506102811 | 53 | 0 | 0.0 | 0.0 | 0.00 | 0.00 | 0.01 | 93 | 1007.2 |
| 20260506102309 | 53 | 0 | 0.0 | 0.0 | 0.00 | 0.00 | 0.01 | 93 | 1007.2 |
| 20260506101811 | 53 | 173 | 0.0 | 0.0 | 0.00 | 0.00 | 0.01 | 92 | 1007.2 |
| 20260506101310 | 53 | 0 | 0.0 | 0.0 | 0.00 | 0.00 | 0.01 | 93 | 1007.1 |
| 20260506100810 | 53 | 10 | 0.0 | 0.0 | 0.00 | 0.00 | 0.01 | 93 | 1007.1 |
| 20260506100308 | 53 | 18 | 1.0 | 2.0 | 0.00 | 0.00 | 0.01 | 93 | 1007.2 |
| 20260506095809 | 53 | 0 | 0.0 | 0.0 | 0.00 | 0.00 | 0.01 | 93 | 1007.3 |
| 20260506095309 | 53 | 0 | 0.0 | 0.0 | 0.00 | 0.00 | 0.01 | 93 | 1007.3 |
| 20260506094808 | 53 | 0 | 0.0 | 0.0 | 0.00 | 0.00 | 0.01 | 93 | 1007.2 |
| 20260506094308 | 53 | 0 | 0.0 | 0.0 | 0.00 | 0.00 | 0.01 | 93 | 1007.1 |
| 20260506093809 | 53 | 0 | 0.0 | 0.0 | 0.00 | 0.00 | 0.01 | 93 | 1007.1 |
| 20260506093309 | 53 | 0 | 0.0 | 0.0 | 0.00 | 0.00 | 0.01 | 93 | 1007.0 |
| 20260506092809 | 53 | 0 | 0.0 | 0.0 | 0.00 | 0.00 | 0.01 | 92 | 1007.1 |
| 20260506092309 | 54 | 0 | 0.0 | 0.0 | 0.00 | 0.00 | 0.01 | 93 | 1007.2 |
| 20260506091808 | 53 | 0 | 0.0 | 0.0 | 0.00 | 0.00 | 0.01 | 93 | 1007.3 |
| 20260506091308 | 53 | 0 | 0.0 | 0.0 | 0.00 | 0.00 | 0.01 | 92 | 1007.1 |
| 20260506090809 | 53 | 0 | 0.0 | 0.0 | 0.00 | 0.00 | 0.01 | 92 | 1007.1 |
| 20260506090309 | 53 | 0 | 0.0 | 0.0 | 0.00 | 0.00 | 0.01 | 92 | 1007.2 |
| 20260506085809 | 54 | 0 | 0.0 | 0.0 | 0.00 | 0.00 | 0.01 | 92 | 1007.4 |
| 20260506085309 | 54 | 0 | 0.0 | 0.0 | 0.00 | 0.00 | 0.01 | 92 | 1007.4 |
| 20260506084808 | 54 | 20 | 0.0 | 1.0 | 0.00 | 0.00 | 0.01 | 92 | 1007.4 |
| 20260506084308 | 54 | 0 | 0.0 | 0.0 | 0.00 | 0.00 | 0.01 | 92 | 1007.5 |
| 20260506083809 | 54 | 0 | 0.0 | 0.0 | 0.00 | 0.00 | 0.01 | 92 | 1007.7 |
| 20260506083308 | 54 | 0 | 0.0 | 0.0 | 0.00 | 0.00 | 0.01 | 92 | 1007.8 |
| 20260506082808 | 54 | 0 | 0.0 | 0.0 | 0.00 | 0.00 | 0.01 | 92 | 1007.7 |
| 20260506082308 | 54 | 0 | 0.0 | 0.0 | 0.00 | 0.00 | 0.01 | 92 | 1007.7 |
| 20260506081808 | 55 | 0 | 0.0 | 0.0 | 0.00 | 0.00 | 0.01 | 92 | 1007.7 |
| 20260506081308 | 55 | 335 | 0.0 | 0.0 | 0.00 | 0.00 | 0.01 | 92 | 1007.8 |
| 20260506080808 | 54 | 0 | 0.0 | 0.0 | 0.00 | 0.00 | 0.01 | 92 | 1007.7 |
| 20260506080308 | 54 | 0 | 0.0 | 0.0 | 0.00 | 0.00 | 0.01 | 92 | 1008.1 |
| 20260506073308 | 55 | 0 | 0.0 | 0.0 | 0.00 | 0.00 | 0.01 | 92 | 1008.1 |
| 20260506072809 | 55 | 0 | 0.0 | 0.0 | 0.00 | 0.00 | 0.01 | 91 | 1008.1 |
| 20260506072310 | 55 | 0 | 0.0 | 0.0 | 0.00 | 0.00 | 0.01 | 91 | 1008.0 |
| 20260506071809 | 55 | 0 | 0.0 | 0.0 | 0.00 | 0.00 | 0.01 | 91 | 1008.0 |
| 20260506071308 | 55 | 204 | 0.0 | 0.0 | 0.00 | 0.00 | 0.01 | 91 | 1008.0 |
| 20260506070808 | 56 | 0 | 0.0 | 0.0 | 0.00 | 0.00 | 0.01 | 91 | 1008.0 |
| 20260506070310 | 56 | 0 | 0.0 | 0.0 | 0.00 | 0.00 | 0.01 | 91 | 1008.0 |
| 20260506062309 | 56 | 0 | 0.0 | 0.0 | 0.00 | 0.00 | 0.01 | 90 | 1008.4 |
| 20260506061808 | 57 | 0 | 0.0 | 0.0 | 0.00 | 0.00 | 0.01 | 90 | 1008.3 |
| 20260506061308 | 57 | 0 | 0.0 | 0.0 | 0.00 | 0.00 | 0.01 | 90 | 1008.5 |
| 20260506060809 | 57 | 0 | 0.0 | 0.0 | 0.00 | 0.00 | 0.01 | 90 | 1008.4 |
| 20260506060310 | 57 | 0 | 0.0 | 0.0 | 0.00 | 0.00 | 0.01 | 90 | 1008.3 |
| 20260506051309 | 58 | 27 | 3.0 | 3.0 | 0.01 | 0.00 | 0.01 | 87 | 1008.7 |
| 20260506050809 | 58 | 23 | 2.0 | 3.0 | 0.01 | 0.00 | 0.01 | 87 | 1008.8 |
| 20260506050309 | 59 | 335 | 1.0 | 1.0 | 0.01 | 0.00 | 0.01 | 86 | 1009.1 |
| 20260506044808 | 59 | 301 | 1.0 | 2.0 | 0.01 | 0.00 | 0.01 | 83 | 1009.2 |
| 20260506044309 | 59 | 309 | 1.0 | 2.0 | 0.00 | 0.00 | 0.01 | 83 | 1009.0 |
| 20260506043809 | 59 | 344 | 1.0 | 2.0 | 0.00 | 0.00 | 0.00 | 83 | 1008.8 |
| 20260506043308 | 60 | 121 | 2.0 | 2.0 | 0.00 | 0.00 | 0.00 | 79 | 1009.0 |
| 20260506042808 | 60 | 277 | 2.0 | 2.0 | 0.00 | 0.00 | 0.00 | 80 | 1009.0 |
| 20260506042309 | 60 | 0 | 0.0 | 0.0 | 0.00 | 0.00 | 0.00 | 80 | 1008.5 |
| 20260506041808 | 60 | 0 | 0.0 | 0.0 | 0.00 | 0.00 | 0.00 | 78 | 1008.6 |
| 20260506041309 | 60 | 21 | 0.0 | 0.0 | 0.00 | 0.00 | 0.00 | 80 | 1008.5 |
| 20260506040809 | 60 | 357 | 1.0 | 1.0 | 0.00 | 0.00 | 0.00 | 79 | 1008.6 |
| 20260506040308 | 60 | 338 | 1.0 | 2.0 | 0.00 | 0.00 | 0.00 | 77 | 1008.7 |
| 20260506035816 | 60 | 235 | 0.0 | 1.0 | 0.00 | 0.00 | 0.28 | 78 | 1008.7 |
| 20260506035308 | 60 | 265 | 1.0 | 1.0 | 0.00 | 0.00 | 0.28 | 79 | 1008.7 |
| 20260506034809 | 60 | 0 | 0.0 | 0.0 | 0.00 | 0.00 | 0.28 | 79 | 1008.6 |
| 20260506034309 | 60 | 0 | 0.0 | 0.0 | 0.00 | 0.00 | 0.28 | 81 | 1008.5 |
| 20260506033818 | 60 | 278 | 0.0 | 1.0 | 0.00 | 0.00 | 0.28 | 81 | 1008.6 |
| 20260506033309 | 61 | 244 | 0.0 | 1.0 | 0.00 | 0.00 | 0.28 | 79 | 1008.5 |
| 20260506032808 | 61 | 275 | 1.0 | 1.0 | 0.00 | 0.00 | 0.28 | 76 | 1008.1 |
| 20260506032310 | 62 | 261 | 0.0 | 1.0 | 0.00 | 0.00 | 0.28 | 75 | 1008.0 |
| 20260506031808 | 62 | 240 | 1.0 | 2.0 | 0.00 | 0.00 | 0.28 | 73 | 1008.3 |
| 20260506031308 | 62 | 216 | 4.0 | 5.0 | 0.00 | 0.00 | 0.28 | 72 | 1008.1 |
| 20260506030808 | 62 | 271 | 1.0 | 2.0 | 0.00 | 0.00 | 0.28 | 72 | 1008.0 |
| 20260506030308 | 62 | 244 | 1.0 | 2.0 | 0.00 | 0.00 | 0.28 | 72 | 1008.1 |
| 20260506025809 | 63 | 243 | 2.0 | 3.0 | 0.00 | 0.00 | 0.28 | 70 | 1008.0 |
| 20260506025308 | 62 | 228 | 3.0 | 5.0 | 0.00 | 0.00 | 0.28 | 71 | 1008.0 |
| 20260506024808 | 62 | 268 | 2.0 | 2.0 | 0.00 | 0.00 | 0.28 | 73 | 1008.1 |
| 20260506024309 | 62 | 227 | 2.0 | 3.0 | 0.00 | 0.00 | 0.28 | 72 | 1008.1 |
| 20260506023808 | 62 | 274 | 1.0 | 3.0 | 0.00 | 0.00 | 0.28 | 75 | 1008.1 |
| 20260506023308 | 63 | 245 | 0.0 | 2.0 | 0.00 | 0.00 | 0.28 | 70 | 1008.0 |
| 20260506022808 | 63 | 237 | 2.0 | 2.0 | 0.00 | 0.00 | 0.28 | 71 | 1008.1 |
| 20260506022308 | 63 | 231 | 1.0 | 3.0 | 0.00 | 0.00 | 0.28 | 69 | 1008.1 |
| 20260506021808 | 63 | 249 | 2.0 | 3.0 | 0.00 | 0.00 | 0.28 | 68 | 1008.0 |
| 20260506021309 | 63 | 267 | 1.0 | 4.0 | 0.00 | 0.00 | 0.28 | 70 | 1007.9 |
| 20260506020808 | 63 | 249 | 2.0 | 3.0 | 0.00 | 0.00 | 0.28 | 71 | 1007.9 |
| 20260506020308 | 63 | 234 | 1.0 | 2.0 | 0.00 | 0.00 | 0.28 | 69 | 1007.9 |
| 20260506015808 | 63 | 226 | 1.0 | 3.0 | 0.00 | 0.00 | 0.28 | 68 | 1007.8 |
| 20260506015308 | 63 | 243 | 2.0 | 4.0 | 0.00 | 0.00 | 0.28 | 69 | 1007.9 |
| 20260506014808 | 63 | 245 | 1.0 | 2.0 | 0.00 | 0.00 | 0.28 | 70 | 1007.8 |
| 20260506014308 | 63 | 215 | 3.0 | 4.0 | 0.00 | 0.00 | 0.28 | 69 | 1007.7 |
| 20260506013809 | 63 | 219 | 2.0 | 3.0 | 0.00 | 0.00 | 0.28 | 69 | 1007.6 |
| 20260506013308 | 63 | 245 | 2.0 | 3.0 | 0.00 | 0.00 | 0.28 | 68 | 1007.6 |
| 20260506012809 | 63 | 236 | 2.0 | 4.0 | 0.00 | 0.00 | 0.28 | 69 | 1007.6 |
| 20260506012308 | 63 | 228 | 2.0 | 4.0 | 0.00 | 0.00 | 0.28 | 70 | 1007.6 |
| 20260506011808 | 62 | 226 | 2.0 | 3.0 | 0.00 | 0.00 | 0.28 | 69 | 1007.5 |
| 20260506011308 | 62 | 218 | 3.0 | 5.0 | 0.00 | 0.00 | 0.28 | 70 | 1007.5 |
| 20260506010809 | 62 | 254 | 3.0 | 5.0 | 0.00 | 0.00 | 0.28 | 72 | 1007.6 |
| 20260506010309 | 62 | 227 | 2.0 | 3.0 | 0.00 | 0.00 | 0.28 | 70 | 1007.4 |
| 20260506005809 | 61 | 265 | 1.0 | 2.0 | 0.00 | 0.00 | 0.28 | 71 | 1007.3 |
| 20260506005309 | 61 | 257 | 1.0 | 2.0 | 0.00 | 0.00 | 0.28 | 72 | 1007.2 |
| 20260506004809 | 60 | 255 | 2.0 | 3.0 | 0.00 | 0.00 | 0.28 | 73 | 1007.1 |
| 20260506004311 | 60 | 265 | 2.0 | 3.0 | 0.00 | 0.00 | 0.28 | 77 | 1007.0 |
| 20260506003809 | 60 | 0 | 0.0 | 0.0 | 0.01 | 0.00 | 0.28 | 77 | 1006.9 |
| 20260506003308 | 60 | 259 | 2.0 | 3.0 | 0.01 | 0.00 | 0.28 | 75 | 1006.9 |
| 20260506002809 | 61 | 231 | 1.0 | 2.0 | 0.01 | 0.00 | 0.28 | 75 | 1006.9 |